CW8014 Weather Reports


time (UTC)temp
C
wind
direction
speed
KPH
gust
KPH
rain 1hr
cm
rain 24hr
cm
rain mn
cm
humidity
%
barometer
mb
20260506143410 12 116 6.4 11.3 0.00 0.00 0.00 68 1009.1
20260506142501 13 130 4.8 11.3 0.00 0.00 0.00 68 1009.1
20260506142400 13 134 4.8 8.0 0.00 0.00 0.00 68 1009.1
20260506141401 13 103 6.4 11.3 0.00 0.00 0.00 66 1009.1
20260506140401 13 118 6.4 12.9 0.00 0.00 0.00 67 1009.0
20260506135401 13 135 6.4 14.5 0.00 0.00 0.00 69 1009.0
20260506134401 13 160 6.4 12.9 0.00 0.00 0.00 69 1009.1
20260506132404 12 151 3.2 8.0 0.00 0.00 0.00 72 1009.1
20260506131404 12 140 6.4 14.5 0.00 0.00 0.00 72 1009.1
20260506130401 12 146 6.4 11.3 0.00 0.00 0.00 73 1009.0
20260506125401 12 111 6.4 14.5 0.00 0.00 0.00 70 1009.0
20260506124401 12 113 6.4 14.5 0.00 0.00 0.00 68 1009.0
20260506122401 12 111 4.8 11.3 0.00 0.00 0.00 65 1009.0
20260506121401 12 82 4.8 8.0 0.00 0.00 0.00 62 1008.8
20260506120401 12 103 6.4 12.9 0.00 0.00 0.00 60 1008.8
20260506115401 12 92 4.8 11.3 0.00 0.00 0.00 61 1008.7
20260506114402 12 10 6.4 16.1 0.00 0.00 0.00 59 1008.8
20260506113401 12 103 6.4 14.5 0.00 0.00 0.00 60 1008.8
20260506104405 12 47 6.4 19.3 0.00 0.00 0.00 63 1008.6
20260506103403 11 53 6.4 16.1 0.00 0.00 0.00 64 1008.6
20260506102402 11 54 9.7 22.5 0.00 0.00 0.00 64 1008.6
20260506101402 11 49 6.4 17.7 0.00 0.00 0.00 65 1008.6
20260506095405 11 49 6.4 17.7 0.00 0.00 0.00 65 1008.5
20260506094405 11 75 4.8 14.5 0.00 0.00 0.00 66 1008.5
20260506093402 11 43 4.8 19.3 0.00 0.00 0.00 66 1008.5
20260506092402 11 360 4.8 14.5 0.00 0.00 0.00 67 1008.5
20260506091402 11 114 3.2 14.5 0.00 0.00 0.00 67 1008.5
20260506090402 11 17 8.0 16.1 0.00 0.00 0.00 67 1008.5
20260506085402 11 360 3.2 9.7 0.00 0.00 0.00 68 1008.4
20260506084402 10 44 4.8 19.3 0.00 0.00 0.00 67 1008.3
20260506083403 10 52 4.8 11.3 0.00 0.00 0.00 71 1008.2
20260506082403 10 57 3.2 6.4 0.00 0.00 0.00 71 1008.2
20260506081403 10 71 3.2 11.3 0.00 0.00 0.00 72 1008.1
20260506080403 10 30 4.8 17.7 0.00 0.00 0.00 75 1008.1
20260506072403 10 15 6.4 14.5 0.00 0.00 0.00 82 1007.9
20260506071403 10 309 6.4 16.1 0.00 0.00 0.00 82 1007.9
20260506070403 10 360 4.8 11.3 0.00 0.00 0.00 83 1007.9
20260506061404 10 355 4.8 12.9 0.00 0.00 0.00 82 1007.8
20260506051404 9 360 4.8 11.3 0.00 0.00 0.00 83 1007.8
20260506044404 10 360 4.8 9.7 0.00 0.00 0.00 81 1007.8
20260506043404 10 36 4.8 9.7 0.00 0.00 0.00 80 1007.8
20260506042404 10 23 6.4 12.9 0.00 0.00 0.00 79 1007.7
20260506041404 10 336 4.8 11.3 0.00 0.00 0.00 79 1007.6
20260506040404 10 43 6.4 14.5 0.00 0.00 0.00 79 1007.7
20260506034405 10 43 4.8 12.9 0.00 0.00 0.00 82 1007.8
20260506033405 10 130 1.6 11.3 0.00 0.00 0.00 84 1007.8
20260506032405 10 360 4.8 16.1 0.00 0.00 0.00 84 1007.9
20260506030408 10 9 4.8 11.3 0.00 0.00 0.00 85 1007.9
20260506025405 10 20 4.8 11.3 0.00 0.00 0.00 86 1008.0
20260506024405 10 57 4.8 9.7 0.00 0.00 0.00 86 1008.0
20260506023405 10 22 4.8 11.3 0.00 0.00 0.00 86 1008.1
20260506022405 10 17 4.8 12.9 0.00 0.00 0.00 87 1008.1
20260506020408 10 29 4.8 9.7 0.00 0.00 0.00 88 1008.2
20260506015405 10 16 4.8 11.3 0.00 0.00 0.00 88 1008.3
20260506012405 10 19 4.8 9.7 0.00 0.00 0.00 89 1008.3
20260506011405 10 9 4.8 12.9 0.00 0.00 0.00 89 1008.4
20260506010405 10 29 4.8 12.9 0.00 0.00 0.00 89 1008.4
20260506004406 10 346 6.4 11.3 0.00 0.00 0.00 88 1008.6
20260506003406 10 355 6.4 12.9 0.00 0.00 0.00 87 1008.6
20260506002406 10 360 4.8 8.0 0.00 0.00 0.00 87 1008.7
20260506000409 10 355 6.4 12.9 0.00 0.00 0.00 86 1008.8
20260505235407 10 360 4.8 16.1 0.00 0.00 0.00 86 1009.0
20260505234406 10 17 6.4 14.5 0.00 0.00 0.00 85 1009.1
20260505233409 10 5 4.8 9.7 0.00 0.00 0.00 85 1009.1
20260505232406 10 5 9.7 16.1 0.00 0.00 0.00 85 1009.0
20260505231406 10 17 8.0 19.3 0.00 0.00 0.00 85 1009.1
20260505230407 10 344 4.8 12.9 0.00 0.00 0.00 85 1009.1
20260505224407 10 360 8.0 16.1 0.00 0.00 0.00 84 1009.2
20260505222406 10 5 6.4 17.7 0.00 0.00 0.00 84 1009.3
20260505220407 10 360 8.0 16.1 0.00 0.00 0.00 83 1009.4
20260505215407 10 346 6.4 17.7 0.00 0.00 0.00 83 1009.5
20260505214407 10 11 6.4 16.1 0.00 0.00 0.00 83 1009.7
20260505213407 10 5 4.8 12.9 0.00 0.00 0.00 83 1009.7
20260505212410 10 119 4.8 9.7 0.00 0.00 0.00 83 1009.7
20260505211407 10 5 8.0 17.7 0.00 0.00 0.00 83 1009.7
20260505210407 10 17 4.8 11.3 0.00 0.00 0.00 84 1009.8
20260505205407 10 360 6.4 16.1 0.00 0.00 0.00 83 1009.9
20260505204407 10 25 8.0 16.1 0.00 0.00 0.00 83 1009.9
20260505203407 10 9 8.0 17.7 0.00 0.00 0.00 83 1010.0
20260505202407 10 344 8.0 19.3 0.00 0.00 0.00 84 1010.0
20260505201410 10 346 8.0 14.5 0.00 0.00 0.00 84 1009.9
20260505195407 10 9 6.4 16.1 0.00 0.00 0.00 84 1009.9
20260505193408 10 355 6.4 17.7 0.00 0.00 0.00 84 1009.8
20260505192407 10 355 6.4 14.5 0.00 0.00 0.00 85 1009.8
20260505191408 10 11 8.0 16.1 0.00 0.00 0.00 84 1009.7
20260505190408 10 360 6.4 14.5 0.00 0.00 0.00 85 1009.6
20260505185408 10 342 6.4 12.9 0.00 0.00 0.00 84 1009.6
20260505183408 10 345 11.3 19.3 0.00 0.00 0.00 84 1009.5
20260505181408 10 5 9.7 19.3 0.00 0.00 0.00 84 1009.5
20260505175408 11 37 9.7 17.7 0.00 0.00 0.00 83 1009.7
20260505174411 11 328 9.7 20.9 0.00 0.00 0.00 83 1009.6
20260505173408 11 360 11.3 19.3 0.00 0.00 0.00 82 1009.7
20260505172408 11 9 11.3 20.9 0.00 0.00 0.00 82 1009.7
20260505171408 11 13 11.3 19.3 0.00 0.00 0.00 82 1009.8
20260505165409 12 346 12.9 20.9 0.00 0.00 0.00 80 1009.7
20260505164409 12 11 6.4 14.5 0.00 0.00 0.00 81 1009.7
20260505163412 12 97 4.8 14.5 0.00 0.00 0.00 81 1009.7
20260505162409 12 5 9.7 17.7 0.00 0.00 0.00 78 1009.7
20260505161409 12 333 9.7 17.7 0.00 0.00 0.00 78 1009.6
20260505160409 12 51 6.4 14.5 0.00 0.00 0.00 77 1009.7
20260505151409 13 355 8.0 16.1 0.00 0.00 0.00 74 1010.0
20260505150409 13 355 8.0 14.5 0.00 0.00 0.00 77 1010.0